Lapse_Rate
6.2 6.5 6.5 6.5 6.5 6.5 6.5 6.5 6.5 6.5 6.5 6.5 6.5 6.5 6.5 5.4 5.4 5.9 5.1 4.5 5.7 6.0 5.4 4.2 3.9 3.0 2.1 1.6 1.2 1.4 1.8 2.6 4.2 3.7 4.2 4.5 4.9 5.3 5.5 5.3 6.8 6.3 5.7 5.5
6.5 6.5 6.5 6.5 6.5 6.5 6.5 6.5 6.5 6.5 6.5 6.5 6.5 6.5 6.5 6.5 6.1 5.1 5.3 5.1 6.1 5.9 5.1 4.5 3.0 1.8 1.1 0.2 1.0 0.9 1.3 2.4 3.8 4.0 4.6 4.7 4.7 4.7 5.1 5.4 6.3 7.0 6.3 5.7
6.5 6.5 6.5 6.5 6.5 6.5 6.5 6.5 6.5 6.5 6.5 6.5 6.5 6.5 6.5 6.3 5.0 6.1 6.4 6.5 6.0 6.0 5.5 4.7 3.2 1.5 0.3 -0.4 -0.3 -0.3 -0.1 0.8 2.3 3.1 3.7 3.4 3.3 3.0 3.5 4.2 4.9 5.5 6.7 6.2
6.5 6.4 6.5 6.5 6.5 6.5 6.5 6.5 6.5 6.5 6.5 6.5 6.5 6.5 6.5 6.5 6.5 6.5 6.5 5.8 5.5 6.0 6.2 5.9 4.6 3.0 1.9 1.2 1.1 1.4 1.3 0.7 1.5 1.5 2.4 3.7 3.8 4.0 4.4 5.4 4.9 4.7 6.4 6.1
6.5 6.5 6.5 6.5 6.5 6.5 6.5 6.5 6.5 6.5 6.5 6.5 6.5 6.5 6.5 6.5 6.5 6.5 6.1 5.9 5.8 6.2 6.4 6.0 5.0 4.7 3.8 2.3 0.9 0.8 1.4 2.4 2.7 2.0 1.5 1.3 2.0 2.5 3.4 4.0 4.1 4.1 4.3 5.0
6.5 5.8 6.5 6.5 6.5 6.5 6.5 6.5 6.5 6.5 6.5 6.5 6.5 6.5 6.5 6.5 6.5 6.5 6.0 5.9 6.3 6.5 6.5 6.7 6.3 4.5 3.0 2.0 1.6 1.7 1.6 1.3 1.7 2.0 1.9 1.7 1.6 1.3 1.3 2.5 2.8 3.2 4.0 3.6
6.5 6.5 6.5 6.5 6.5 6.5 6.5 6.5 6.5 6.5 6.5 6.5 6.5 6.5 6.5 6.5 6.5 6.5 6.4 5.8 6.0 6.2 6.2 5.9 5.1 4.0 3.2 2.2 1.7 2.3 1.6 1.8 1.6 1.9 2.5 2.0 2.1 1.5 1.9 1.7 1.8 2.4 3.3 4.3
6.5 6.5 6.5 6.5 6.5 6.5 6.5 6.5 6.5 6.5 6.5 6.5 6.5 6.5 6.5 6.5 6.0 6.0 6.2 6.1 6.4 6.2 6.4 6.2 5.9 5.6 5.3 5.0 4.4 3.4 2.5 2.2 1.8 1.8 1.9 2.5 1.8 1.5 1.9 1.5 1.4 1.6 2.0 2.7
6.5 6.5 6.5 6.5 6.5 6.5 6.5 6.5 6.5 6.5 6.5 6.5 6.5 6.5 6.5 6.5 6.5 6.2 6.2 6.0 5.9 6.3 6.5 6.5 6.4 6.0 6.0 6.2 5.4 5.0 3.8 2.8 2.3 2.1 2.3 2.3 1.6 1.4 1.5 1.2 1.2 1.6 1.6 2.9
6.5 6.5 6.5 6.5 6.3 6.4 6.5 6.5 6.5 6.5 6.5 6.5 6.5 6.5 6.5 6.5 6.5 6.5 6.4 5.9 6.3 6.5 6.5 6.6 6.5 6.6 6.4 6.6 6.1 5.2 4.7 4.0 3.5 3.1 2.7 3.0 2.3 2.2 1.9 1.2 0.9 1.0 1.5 1.6
6.5 6.5 6.5 6.5 6.5 6.5 6.5 6.5 6.5 6.5 6.5 6.5 6.5 6.5 6.5 6.5 6.5 6.5 6.2 6.3 6.6 6.9 6.6 6.6 6.2 6.4 6.7 6.2 6.0 5.2 4.5 3.4 3.1 3.0 3.0 2.6 2.4 2.3 1.7 0.9 0.8 0.5 0.8 1.5
6.5 6.5 6.5 6.5 6.5 6.5 6.5 6.5 6.5 6.5 6.5 6.5 6.5 6.5 6.5 6.5 6.3 6.3 6.3 6.7 6.7 6.9 7.1 6.9 7.0 7.0 6.6 6.4 5.4 5.8 5.5 3.9 3.7 3.7 3.5 3.2 2.7 1.9 1.6 1.7 1.6 0.8 0.8 0.6
6.5 6.5 6.5 6.5 6.5 6.5 6.5 6.5 6.5 6.5 6.5 6.5 6.5 6.5 6.5 6.3 6.3 6.1 5.8 5.2 6.5 6.9 6.4 6.3 6.1 5.9 6.0 5.8 5.5 5.3 4.9 4.3 3.9 3.6 3.5 3.3 2.7 2.4 2.2 1.7 1.6 1.6 1.5 1.1
6.5 6.5 6.5 6.5 6.5 6.5 6.5 6.5 6.5 6.5 6.5 6.5 6.5 6.5 6.5 6.5 6.5 5.9 5.5 5.6 6.2 6.8 7.1 7.2 6.9 6.5 6.9 6.7 5.9 5.8 5.5 5.3 4.6 3.7 3.1 2.5 2.1 2.1 2.2 1.8 1.1 0.4 0.7 1.0
6.5 6.5 6.5 6.5 6.5 6.5 6.5 6.5 6.5 6.5 6.5 6.5 6.5 6.5 6.5 6.5 6.5 6.3 5.5 6.3 6.8 6.9 6.6 6.3 6.7 6.3 5.9 6.1 6.0 5.8 5.5 5.1 4.8 4.0 3.1 2.8 2.5 2.1 1.6 0.8 -0.1 -0.1 0.0 0.8
6.5 6.5 6.5 6.5 6.5 6.5 6.5 6.5 6.5 6.5 6.5 6.5 6.5 6.5 6.5 5.8 5.8 6.3 6.5 6.7 6.8 6.6 6.7 6.9 6.9 7.2 6.8 6.9 6.7 6.6 5.9 5.1 4.9 3.6 2.7 2.8 1.9 1.8 1.1 0.5 0.8 0.7 0.8 0.6
6.5 6.5 6.5 6.5 6.5 6.5 6.5 6.5 6.5 6.5 6.5 6.5 6.5 6.5 6.4 6.5 6.4 6.0 6.1 6.4 6.4 6.6 6.8 6.7 6.5 6.4 6.2 6.2 6.8 6.3 6.2 6.1 3.6 3.0 2.8 2.3 2.2 2.3 2.7 2.0 1.7 1.8 1.6 1.5
6.5 6.5 6.5 6.5 6.5 6.5 6.5 6.5 6.5 6.5 6.5 6.5 6.5 6.5 5.8 6.2 6.6 6.8 6.7 5.7 6.1 6.9 7.1 6.7 6.1 6.2 6.0 5.9 5.7 5.8 5.3 3.7 4.2 3.8 3.9 3.9 4.5 4.0 3.8 3.2 2.6 2.5 2.0 1.5
6.4 6.5 6.5 6.5 6.5 6.5 6.5 6.5 6.5 6.5 6.5 6.5 6.5 6.5 6.1 6.2 6.2 5.6 6.2 6.5 7.1 7.1 6.6 6.1 6.0 6.2 5.3 4.9 4.3 3.8 3.6 3.9 4.6 4.9 5.1 5.2 5.0 5.1 5.7 5.3 5.0 5.0 5.6 4.1
6.5 6.5 6.5 6.5 6.5 6.5 6.5 6.5 6.3 6.5 6.5 4.6 3.1 5.1 5.0 6.4 6.5 6.5 6.3 6.3 6.2 6.4 6.2 6.0 5.8 5.0 4.4 4.0 3.6 3.3 3.5 3.1 4.0 4.7 4.5 4.8 5.1 5.3 6.3 7.0 7.2 7.4 7.6 7.8
6.5 6.5 6.5 6.5 6.5 6.5 6.5 5.6 6.2 6.5 6.5 4.2 2.7 3.7 3.9 6.4 5.0 4.7 5.5 5.8 6.3 6.0 6.4 4.2 3.5 3.8 4.0 3.5 2.3 2.6 2.8 2.6 3.3 2.9 2.9 2.3 3.0 3.6 4.3 5.1 6.2 6.9 7.3 8.0
6.5 6.5 6.5 6.5 6.5 6.5 6.0 6.4 6.5 5.9 4.9 4.2 4.7 4.5 5.3 5.0 5.2 5.6 5.4 5.6 5.7 5.6 3.4 2.4 2.5 3.2 3.0 2.3 1.4 1.1 1.1 1.8 0.9 0.6 0.6 0.8 1.0 1.9 3.5 4.1 5.2 6.5 7.9 8.3
6.5 6.5 6.5 6.5 6.5 5.9 4.9 4.6 4.0 5.0 3.4 4.3 4.9 4.7 4.8 4.8 5.2 5.3 5.3 5.6 3.9 2.8 2.7 1.7 -0.3 0.1 1.0 -0.7 -0.7 -0.9 -0.4 -0.4 -0.4 -0.7 -0.8 -0.1 1.0 2.3 3.8 4.9 5.6 6.3 7.5 8.2
6.5 5.1 6.5 6.5 6.5 6.2 5.7 5.9 5.6 5.4 5.1 5.1 5.0 4.7 5.1 5.1 5.1 5.6 5.3 4.1 3.3 1.5 0.7 -0.4 -1.5 -1.8 -1.9 -1.9 -1.1 -2.1 -0.5 -0.1 -0.8 -0.9 -0.2 1.2 2.2 3.5 5.0 6.4 7.1 7.3 7.7 7.9
6.3 6.3 6.5 6.5 6.4 6.1 6.1 5.9 6.0 6.0 5.6 5.1 4.7 5.1 5.0 4.7 5.3 5.3 3.2 1.8 1.8 1.2 0.4 -0.9 -1.6 -1.6 -1.7 -1.6 -2.1 -2.4 -0.3 -0.6 -0.4 0.3 1.2 2.3 3.8 5.4 6.2 6.6 7.0 8.0 8.3 8.4
6.3 6.5 6.5 6.5 6.0 6.2 6.2 5.2 5.0 5.0 4.9 4.9 4.8 4.2 2.6 2.5 3.1 2.8 2.2 2.0 1.2 0.2 -0.6 -1.5 -2.2 -2.6 -3.0 -3.2 -2.7 -1.5 -1.9 -1.5 -0.3 1.0 2.5 3.4 5.4 6.1 6.7 7.0 7.4 8.3 9.5 9.7
Wind_Speed
5 4 6 11 12 11 4 8 10 9 9 10 10 9 9 12 14 18 12 6 16 16 14 15 14 12 13 15 14 13 12 10 5 3 2 1 1 1 1 1 4 8 12 14
3 6 13 9 8 9 8 9 10 8 7 6 8 10 15 17 14 11 2 14 14 13 15 13 11 11 12 12 13 15 15 14 8 4 3 3 2 1 0 2 3 3 8 12
9 7 7 4 5 10 9 9 9 9 7 7 6 7 9 11 7 15 17 16 16 13 10 9 11 13 12 15 14 14 14 13 11 11 5 4 4 3 4 3 2 1 4 6
9 4 4 5 9 6 8 6 3 3 3 4 8 7 2 10 3 14 13 12 10 9 9 9 11 12 12 11 10 13 14 13 11 12 8 7 4 3 2 1 2 2 0 2
1 4 2 5 6 2 2 5 4 4 6 6 8 5 4 7 11 9 9 9 9 8 8 9 9 10 10 9 10 8 10 12 13 11 9 6 6 4 4 3 5 5 2 2
7 4 3 4 1 2 4 4 7 8 3 3 7 4 3 4 7 6 7 9 8 8 8 8 8 9 10 8 8 11 12 13 12 12 11 9 8 6 5 5 4 4 1 2
4 7 4 1 2 3 2 3 4 3 2 5 7 6 6 3 11 11 13 10 9 8 7 8 8 8 8 9 9 9 10 12 10 9 8 9 8 8 8 6 5 6 4 3
4 5 6 5 2 2 5 3 3 5 2 7 5 7 5 5 13 15 14 11 9 8 7 7 8 7 7 8 8 8 8 9 9 8 8 6 7 7 6 7 5 5 4 5
3 2 3 2 2 3 2 3 1 2 2 1 5 6 10 8 10 11 12 10 8 7 6 6 7 7 7 6 7 7 8 8 9 8 7 8 10 10 8 9 7 7 6 7
3 4 3 3 4 3 2 1 2 0 3 5 5 5 7 8 9 11 10 8 7 6 6 6 6 5 4 4 4 6 5 5 5 5 5 7 8 7 6 7 8 9 9 10
4 0 3 5 3 2 2 3 4 4 5 3 9 7 5 7 8 9 7 6 4 3 2 1 4 4 4 4 5 4 5 6 6 7 5 5 5 6 8 7 7 7 6 8
2 1 4 7 10 8 7 11 6 4 6 6 11 13 5 9 7 7 6 6 6 4 3 3 4 4 4 3 3 3 2 4 4 4 5 5 5 7 6 7 7 7 7 8
2 1 2 9 2 4 3 3 4 8 0 9 9 6 5 7 6 6 7 7 5 4 5 4 3 3 3 2 4 4 4 4 3 4 5 5 5 5 5 5 6 7 8 7
3 2 5 8 9 9 6 12 12 3 5 10 14 18 22 7 6 8 7 7 6 5 4 1 2 3 4 4 5 5 6 5 5 5 5 6 6 5 5 5 5 6 6 7
3 6 7 13 13 13 10 14 16 13 15 15 23 22 23 21 12 2 3 6 5 5 6 6 2 1 4 3 3 3 4 5 4 4 5 6 6 6 6 7 6 7 6 7
4 4 1 7 4 8 15 21 16 17 20 21 21 23 17 6 5 3 4 4 2 4 5 3 5 4 5 5 5 5 5 6 3 5 7 8 8 8 6 5 6 6 7 7
2 3 2 6 1 3 8 19 18 15 18 17 18 12 2 3 4 5 4 3 5 5 4 5 5 6 5 3 2 4 5 4 3 4 6 7 7 8 10 9 9 11 10 9
4 4 2 4 4 4 9 2 4 8 10 5 1 3 5 3 2 2 4 7 6 3 3 4 4 5 4 0 2 4 4 4 4 6 7 7 7 8 9 8 10 13 11 13
14 7 4 3 6 8 12 8 9 5 12 1 3 6 4 5 5 5 5 4 1 3 4 4 3 2 4 4 4 3 3 4 5 7 8 7 6 9 12 14 15 14 13 14
7 11 6 2 4 7 1 5 5 2 10 6 6 4 3 2 1 5 4 4 4 5 4 4 4 3 5 5 5 3 4 5 7 9 9 9 9 11 15 16 16 15 14 17
3 1 11 12 7 7 1 5 5 4 10 2 5 4 4 4 6 9 6 6 5 5 2 5 6 5 5 5 5 6 7 8 6 8 10 12 12 12 14 16 15 15 16 17
6 5 4 2 3 10 3 4 6 5 3 6 6 8 8 7 8 6 8 6 6 3 5 6 5 4 5 5 5 8 9 9 9 10 11 12 12 10 11 14 14 15 15 17
3 7 4 8 5 4 6 7 8 4 4 6 7 9 9 9 7 7 7 5 4 5 4 4 3 5 4 3 2 8 11 11 12 11 12 11 12 11 11 13 14 12 12 12
5 8 7 1 8 13 17 14 10 11 11 8 7 7 6 8 8 7 3 2 3 3 3 2 3 3 5 3 5 4 10 10 10 12 13 12 12 13 12 10 10 11 11 12
9 3 9 14 14 16 17 13 14 15 15 11 9 8 9 8 7 4 4 3 2 2 2 2 2 4 6 7 8 6 9 8 11 12 12 13 11 12 13 12 11 11 13 14
14 21 14 13 12 14 14 11 9 9 9 8 7 5 3 4 5 4 3 3 2 2 2 2 2 5 7 6 8 9 5 6 10 12 11 11 11 11 11 12 12 23 28 31
Wind_Direction
203 208 206 227 231 245 322 299 296 299 304 289 293 308 291 274 281 292 283 285 94 82 73 54 43 27 25 15 20 12 8 359 34 53 101 74 179 175 148 147 189 182 176 185
139 225 235 262 297 299 290 295 282 274 276 331 297 295 286 280 269 256 289 66 75 68 56 50 45 35 32 27 25 22 20 14 13 27 19 64 44 28 93 150 155 198 176 178
224 253 316 260 262 273 265 260 280 286 336 288 276 261 258 264 250 78 73 75 64 60 56 45 39 36 30 25 27 27 22 15 14 1 14 23 45 38 20 18 30 17 124 165
228 302 294 262 259 256 278 293 308 308 317 238 49 299 278 265 309 89 84 73 63 64 62 50 36 36 34 31 27 32 23 17 18 15 20 22 32 47 6 260 112 64 320 239
201 138 150 232 236 109 240 2 326 286 259 300 246 252 251 232 124 119 97 93 90 79 71 58 50 47 33 27 27 38 41 29 11 10 19 17 25 25 6 20 38 358 30 284
245 138 213 220 52 212 44 285 256 239 214 265 230 206 333 62 151 113 104 96 90 78 67 66 59 47 41 30 30 23 26 34 24 18 12 10 6 29 37 14 9 332 271 233
157 198 181 129 208 129 132 275 323 310 147 219 42 330 246 201 164 157 133 108 89 74 62 56 47 44 39 24 25 37 26 26 24 16 7 16 354 18 26 24 9 1 346 329
228 302 134 169 236 76 205 210 190 257 243 295 326 247 234 88 84 89 95 98 88 75 69 64 55 49 50 41 24 30 36 32 21 11 11 4 13 32 19 20 7 359 354 337
346 238 115 138 60 118 13 171 339 278 337 67 242 272 297 132 93 97 96 81 75 71 69 68 70 60 49 44 51 36 30 32 26 11 358 5 20 23 12 24 18 3 349 344
44 299 291 112 126 221 217 41 332 154 234 250 253 294 268 43 138 106 88 87 79 54 45 61 67 64 69 57 60 53 66 39 23 20 20 20 15 7 1 27 14 5 351 349
69 228 243 346 192 194 242 250 217 246 215 245 274 266 60 78 87 101 97 96 104 102 85 86 113 99 72 57 57 53 54 55 16 1 6 37 24 359 8 12 358 356 346 344
127 273 260 246 291 287 266 270 250 220 260 255 259 265 46 101 104 128 163 178 169 154 28 17 53 80 61 20 42 67 51 72 54 3 338 17 21 11 11 2 345 338 340 338
123 186 298 322 287 34 111 54 326 315 273 256 270 260 134 138 170 186 216 208 203 163 174 187 159 141 109 48 13 9 9 39 37 13 355 352 4 1 344 346 333 327 326 325
32 235 193 229 258 338 316 302 287 209 275 285 269 285 288 256 221 230 235 234 202 174 197 248 320 27 10 31 12 357 355 3 358 355 346 331 334 322 307 301 292 299 304 299
188 242 219 258 274 290 296 280 279 275 266 260 273 277 276 287 303 37 105 90 125 203 212 215 171 320 299 296 301 326 328 337 339 338 324 306 302 296 295 292 286 281 286 283
197 251 244 281 271 277 275 270 270 270 268 266 267 269 284 13 53 72 59 44 356 13 349 275 176 224 254 258 265 273 288 292 306 321 314 312 313 316 298 265 270 283 286 286
275 159 99 254 136 317 294 253 249 253 255 259 268 274 348 21 53 61 40 319 289 283 315 320 252 228 230 231 281 284 281 292 282 273 281 280 280 284 289 289 292 297 296 292
207 141 161 258 67 241 250 212 318 288 282 284 261 167 188 175 11 347 283 256 251 273 319 313 320 312 278 90 6 343 340 320 293 281 274 272 275 275 280 277 276 287 294 296
224 211 236 210 204 279 302 292 293 308 289 25 263 191 159 23 319 277 260 73 48 278 259 252 265 328 38 25 27 7 319 282 286 287 292 295 298 299 299 294 290 288 288 286
201 214 202 180 212 226 124 95 139 98 272 223 151 135 107 311 260 266 337 333 301 289 275 279 304 51 46 31 29 4 316 312 303 306 315 317 313 305 301 298 297 297 292 287
139 249 220 236 246 262 190 124 110 123 270 195 139 183 221 212 215 248 255 262 253 238 286 62 44 40 36 30 22 331 314 306 317 328 315 310 310 309 303 299 297 296 293 289
161 174 212 179 240 274 154 111 167 212 169 178 207 233 250 276 270 259 256 257 259 84 61 48 27 22 15 17 350 319 313 320 321 313 311 308 304 298 297 293 293 290 289 286
253 202 195 187 200 207 190 207 218 237 217 248 228 247 250 261 249 260 248 254 93 86 68 58 38 335 346 0 352 319 318 321 318 314 307 303 298 296 292 292 292 291 287 285
259 232 236 92 247 254 264 262 261 267 265 248 248 257 256 248 250 241 194 116 79 76 75 65 21 326 309 313 324 299 312 315 311 307 305 305 303 301 295 288 288 289 288 286
228 159 234 246 253 257 261 259 262 267 267 268 258 242 243 230 235 182 145 132 118 89 55 50 341 306 306 320 314 310 308 309 306 305 304 303 301 302 299 291 289 285 280 279
235 240 240 244 241 244 248 243 230 234 238 234 244 238 206 166 172 131 146 109 91 58 19 317 292 298 303 307 305 303 296 295 299 302 306 306 303 299 297 296 293 286 290 294